Terminal Aerodrome Forecast
Issued by NWS

Home | Current Version | Previous Version | Text Only | Print | Product List | Glossary Off
Versions: 1 2 3 4 5 6 7 8 9 10 11 12 13 14

000
FTUS43 KIWX 051722
TAFSBN
TAF
KSBN 051722Z 0518/0618 18005KT P6SM SCT040
      TEMPO 0609/0612 5SM BR
     FM061500 20010KT P6SM BKN040=

USA.gov is the U.S. government's official web portal to all federal, state and local government web resources and services.